Location: Hahndorf
(51.9550°N, 10.4343°E)
Time: 05:01:48
(UTC+00:00)

Daily predictions for brighter satellites

Satellite Brightness Start Highest point End
(mag) Time Altitude Azimuth Time Altitude Azimuth Time Altitude Azimuth
Cosmos 1726 Rocket 4.0 00:07:11 51° E 00:07:11 51° E 00:11:04 10° NNE
Cosmos 1331 Rocket 4.4 00:06:53 49° W 00:07:46 55° WNW 00:12:57 10° NNE
Cosmos 1536 4.2 00:08:53 10° N 00:12:06 28° ENE 00:12:16 28° ENE
ATLAS 2AS CENTAUR R/B 2.9 00:09:46 35° WSW 00:12:50 69° NW 00:19:40 10° NE
DELTA 2 DEB (DPAF) 4.4 00:09:14 10° NNE 00:11:57 49° N 00:11:57 49° N
IDEFIX/ARIANE 42P 3.9 00:10:49 10° NE 00:15:15 28° E 00:16:41 24° ESE
Meteor 1-5 Rocket 4.1 00:15:07 10° NNW 00:20:27 65° W 00:20:58 61° SW
Cosmos 1953 Rocket 3.5 00:17:43 10° N 00:22:12 76° E 00:22:18 76° E
Cosmos 1980 Rocket 2.6 00:19:07 10° NW 00:24:19 43° WSW 00:24:19 43° WSW
Cosmos 1766 4.4 00:21:55 10° N 00:24:17 33° NE 00:24:17 33° NE
USA 234 3.6 00:20:12 10° E 00:26:40 64° NNE 00:33:08 10° WNW
Cosmos 44 Rocket 3.9 00:29:46 43° SE 00:30:03 43° ESE 00:34:56 10° NE
Cosmos 1707 4.3 00:31:24 22° NE 00:31:24 22° NE 00:32:54 10° NNE
Cosmos 1825 Rocket 4.0 00:28:41 10° NNW 00:32:19 48° WNW 00:32:19 48° WNW
COSMOS 2406 4.0 00:32:29 35° SE 00:33:50 40° ESE 00:39:09 10° NE
Meteor 2-10 4.3 00:30:01 10° NNW 00:35:23 57° W 00:36:02 53° SW
Cosmos 2369 3.7 00:30:15 10° NW 00:35:53 63° WSW 00:36:37 57° SSW
Cosmos 1634 Rocket 4.1 00:35:56 44° SSE 00:37:56 70° E 00:44:05 10° NNE
Cosmos 724 4.4 00:44:49 49° S 00:46:18 64° SE 00:52:10 10° NE
Cosmos 2084 3.3 00:46:23 72° WNW 00:46:31 72° NW 00:50:40 10° NE
Spot 1 3.8 00:42:49 10° NNE 00:46:57 86° ESE 00:47:07 82° S
Cosmos 1607 4.2 00:47:22 43° S 00:49:00 56° ESE 00:55:06 10° NE
Cosmos 2360 Rocket 3.0 00:46:07 10° NNW 00:51:40 50° NE 00:57:10 10° SE
Cosmos-2242 2.8 00:52:12 77° SSE 00:52:27 81° E 00:56:39 10° NNE
Cosmos 2333 Rocket 2.3 00:47:07 10° NNW 00:52:48 75° ENE 00:57:05 18° SE
FENGYUN 3A 4.5 00:49:17 10° NNE 00:54:29 43° E 00:56:43 29° SSE
USA 281 3.1 00:51:27 24° SSE 00:55:44 87° WSW 01:02:22 10° NNW
Cosmos 2082 Rocket 2.2 00:59:24 47° SW 01:01:06 77° WNW 01:06:53 10° NNE
Cosmos 1842 3.9 01:02:44 37° E 01:02:44 37° E 01:05:34 10° NNE
Cosmos 1833 Rocket 4.3 01:00:04 15° W 01:03:30 26° NW 01:08:10 10° NNE
Meteor 2-2 Rocket 4.2 01:02:52 45° S 01:04:42 86° E 01:10:22 10° NNE
Cosmos 2278 3.7 01:00:50 10° NNW 01:06:35 84° ENE 01:11:11 16° SSE
Cosmos 2279 Rocket 4.0 01:03:59 37° S 01:06:36 80° E 01:12:53 10° NNE
Meteor 2-9 Rocket 4.5 01:01:34 10° N 01:06:52 61° ENE 01:10:19 21° SSE
Cosmos 2322 Rocket 2.5 01:01:26 10° NNW 01:07:03 65° NE 01:12:40 10° SE
Cosmos 1486 Rocket 3.9 01:02:06 10° NNW 01:07:20 86° WSW 01:09:37 35° SSE
NPP 4.1 01:02:23 10° NNE 01:07:43 56° ESE 01:09:56 33° SSE
Resurs 1-4 Rocket 3.9 01:04:01 10° NE 01:08:17 24° E 01:12:17 11° SE
Cosmos 1867 4.5 01:06:15 25° W 01:08:57 43° NW 01:14:11 10° NE
Cosmos 2221 3.5 01:07:40 30° SE 01:08:58 38° E 01:12:49 10° NNE
NOSS 3-3 (A) 4.0 01:14:12 39° S 01:15:54 55° SE 01:21:59 10° NE
ACS3 Solar Sail 1.9 01:10:18 10° N 01:16:13 61° WNW 01:18:33 37° SW
Cosmos 1777 Rocket 3.9 01:12:41 10° NNW 01:17:59 81° WSW 01:20:41 30° SSE
Cosmos 2219 Rocket 3.0 01:15:29 10° NNW 01:20:59 52° NE 01:26:30 10° SE
SL-16 R/B 2.1 01:16:28 10° NW 01:22:06 65° WSW 01:24:53 30° S
H-2A R/B 4.1 01:18:57 10° NE 01:22:55 22° E 01:26:57 10° SE
GP-B 3.8 01:19:00 10° NNW 01:23:01 37° W 01:23:25 36° W
Meteor 1-11 Rocket 4.3 01:17:23 10° N 01:23:14 59° ENE 01:28:56 10° SSE
CZ-4C R/B 2.0 01:22:06 41° WSW 01:23:38 69° NW 01:29:23 10° NE
Cosmos 1271 Rocket 3.2 01:27:38 38° SE 01:28:23 44° E 01:31:43 10° NNE
Meteor 1-14 Rocket 4.2 01:23:25 10° NNW 01:29:12 86° W 01:32:37 25° S
ATLAS 3B R/B 4.0 01:23:48 10° WNW 01:29:24 22° WSW 01:29:24 22° WSW
SL-4 R/B 2.8 01:31:34 33° SSE 01:31:34 33° SSE 01:33:55 10° SE
USA 267 4.0 01:24:47 10° ENE 01:30:56 41° SE 01:34:01 26° S
NOSS 3-3 (C) 4.0 01:30:27 35° S 01:32:37 60° SE 01:38:51 10° NE
Cosmos 2058 Rocket 3.5 01:32:04 41° WSW 01:32:57 48° WNW 01:37:14 10° N
Cosmos 2266 Rocket 3.9 01:28:36 10° N 01:34:46 90° WSW 01:39:09 20° S
Cosmos 1470 2.2 01:32:54 10° NNW 01:36:13 71° W 01:36:16 71° WSW
Gbstr 26 Del rocket 2.8 01:37:23 49° S 01:37:23 49° S 01:40:33 10° SE
KORONAS-FOTON 3.7 01:38:28 52° WNW 01:38:30 52° WNW 01:41:48 10° N
USA 290 4.1 01:37:48 19° SE 01:38:43 22° ESE 01:41:15 10° NE
Cosmos 909 Rocket 4.3 01:37:59 27° WSW 01:41:28 61° NW 01:47:55 10° NE
Cosmos 1536 3.9 01:44:12 10° NNW 01:46:48 25° WNW 01:46:48 25° WNW
Cosmos 2333 4.1 01:41:54 10° NNW 01:47:37 87° WSW 01:53:19 10° SSE
Cosmos 1655 Rocket 4.4 01:43:38 10° N 01:49:52 65° ENE 01:56:01 10° SSE
DMSP B5D2-2 4.0 01:45:23 13° SSE 01:50:00 88° ENE 01:55:14 10° NNW
Cosmos 1812 Rocket 3.5 01:49:34 31° S 01:51:34 80° E 01:55:57 10° NNE
Meteor 2-6 Rocket 4.4 01:49:06 30° SSW 01:51:59 66° WNW 01:57:53 10° N
NOSS 3-4 (A) 3.8 01:45:54 10° NW 01:52:28 86° NE 02:00:14 10° SE
NOSS 3-4 (C) 3.8 01:46:26 10° NW 01:53:01 85° NE 02:00:49 10° SE
IDEFIX/ARIANE 42P 2.9 01:49:57 10° N 01:54:59 52° WNW 01:57:22 29° SW
COSMOS 2441 4.3 01:52:17 10° NNE 01:57:06 89° ESE 01:59:44 27° SSW
Envisat 3.4 01:52:37 10° NNE 01:57:40 61° ESE 02:01:23 18° S
Aureole 1 Rocket 3.3 01:54:58 10° NNW 01:58:59 74° ENE 02:04:02 10° SSE
Meteor 2-20 4.5 01:54:40 20° S 01:59:06 83° E 02:05:18 10° NNE
Cosmos 2084 Rocket 3.3 01:58:40 10° NW 02:02:49 62° SW 02:07:00 10° SSE
Cosmos 1707 4.1 02:03:05 16° WNW 02:03:05 16° WNW 02:04:45 10° NNW
ATLAS 2AS CENTAUR R/B 4.0 01:58:39 10° WNW 02:04:50 34° NNW 02:10:58 10° NE
SWARM C 4.4 02:01:41 10° N 02:04:57 86° E 02:06:24 30° S
SWARM A 4.3 02:01:46 10° N 02:05:02 73° E 02:06:47 25° SSE
Iridium 4 Rocket 3.3 02:03:00 21° S 02:06:11 90° NW 02:11:21 10° N
MOZ.5/SAFIR/RUBIN 5/SL-8 4.0 02:05:32 25° SSW 02:07:58 50° W 02:12:30 10° NNW
Meteor 1-27 Rocket 4.2 02:03:31 13° S 02:08:51 64° E 02:14:42 10° NNE
H-2A R/B 2.0 02:06:25 17° SSE 02:09:06 85° WSW 02:12:43 10° NNW
USA 234 3.2 02:03:06 10° SE 02:09:39 76° SSW 02:16:14 10° WNW
Cosmos 1975 3.2 02:06:32 10° NNW 02:09:54 36° W 02:10:35 33° WSW
Cosmos 990 Rocket 4.0 02:05:35 10° NNW 02:10:36 56° WSW 02:15:37 10° S
ADEOS II 2.9 02:06:05 10° NNE 02:11:11 49° E 02:16:14 10° S
Cosmos 44 Rocket 4.1 02:08:21 21° WSW 02:11:30 47° NW 02:16:31 10° NE
ALOS 2.5 02:11:15 10° NNE 02:15:48 67° ESE 02:19:31 15° S
MSX 4.5 02:11:01 10° N 02:16:22 41° WNW 02:19:47 21° WSW
Cosmos 1763 Rocket 3.5 02:13:17 23° SSW 02:16:36 83° WNW 02:21:56 10° NNE
Cosmos 1238 Rocket 2.7 02:15:06 21° SSE 02:16:44 51° E 02:19:42 10° NNE
COSMOS 2406 3.8 02:14:30 21° WSW 02:18:04 47° NW 02:23:38 10° NNE
CZ-2D R/B 2.2 02:14:33 10° NNE 02:19:49 74° ESE 02:24:32 13° S
COSMOS 2428 3.7 02:14:25 10° NNW 02:20:01 51° NE 02:25:34 10° SE
SL-16 R/B 3.4 02:15:45 10° SE 02:21:47 53° ENE 02:27:51 10° N
ADEOS Rocket 3.7 02:15:16 10° N 02:22:40 64° WNW 02:28:49 17° SW
Sich 1 4.3 02:20:46 10° N 02:24:43 40° ENE 02:28:38 10° SE
Cosmos 1898 Rocket 3.6 02:23:35 10° NNW 02:28:46 78° ENE 02:33:56 10° SSE
Spot 2 4.3 02:24:08 10° S 02:28:55 68° WSW 02:33:53 10° NNW
Cosmos 1354 Rocket 4.5 02:28:09 10° NW 02:33:02 39° WSW 02:37:51 10° S
Cosmos 1937 Rocket 3.9 02:28:06 10° NNW 02:33:19 65° ENE 02:38:26 10° SE
FENGYUN 3A 4.5 02:29:42 10° N 02:34:39 37° WNW 02:38:14 17° WSW
Cosmos 2360 Rocket 2.7 02:30:22 10° NW 02:35:31 36° WSW 02:40:38 10° S
Cosmos 2333 Rocket 3.3 02:32:12 10° NW 02:36:31 23° WSW 02:39:00 17° SW
SL-19 R/B 4.5 02:31:24 10° NNE 02:37:04 78° ESE 02:43:02 10° SSW
Alouette 2 Rocket 3.3 02:33:15 10° NNW 02:37:27 61° W 02:40:57 10° S
USA 305 2.2 02:38:24 19° NW 02:39:18 28° N 02:40:29 10° ENE
EP 1 4.4 02:37:15 10° NW 02:39:46 46° SW 02:42:27 10° SSE
USA 281 4.4 02:38:17 17° SW 02:41:04 21° W 02:45:56 10° NW
Meteor 2-10 Rocket 3.6 02:37:51 10° N 02:42:58 79° ENE 02:48:13 10° SSE
H-2A R/B 3.7 02:41:03 10° NNE 02:44:39 30° E 02:48:11 10° SSE
Cosmos 540 Rocket 3.7 02:41:19 17° SW 02:45:10 57° WNW 02:50:16 10° NNE
Cosmos 2221 3.7 02:43:58 17° WSW 02:46:07 25° WNW 02:49:34 10° NNW
Cosmos 2082 Rocket 3.9 02:41:42 10° W 02:46:08 23° NW 02:50:36 10° NNE
Cosmos 1553 Rocket 4.3 02:42:12 10° S 02:48:20 69° E 02:54:37 10° NNE
Resurs 1-4 Rocket 2.2 02:43:12 10° N 02:48:29 63° WNW 02:53:19 12° SSW
Cosmos 2322 Rocket 3.1 02:46:03 10° NW 02:50:40 26° WSW 02:55:16 10° SSW
Cosmos 468 Rocket 4.0 02:46:38 13° SSW 02:51:25 82° WNW 02:56:45 10° NNE
BREEZE-M DEB (TANK) 3.4 02:50:12 14° W 02:52:43 54° S 03:00:57 10° ESE
CZ-2C R/B 4.4 02:51:41 10° NE 02:55:52 28° E 02:59:54 10° SSE
Cosmos 1766 Rocket 3.9 02:52:21 10° NNW 02:56:29 43° W 03:00:33 10° SSW
ACS3 Solar Sail 3.7 02:54:17 10° NNW 02:57:31 15° NW 03:00:46 10° W
Cosmos 1833 4.3 02:53:59 13° SW 02:59:07 71° NW 03:04:49 10° NNE
H-2A R/B 2.1 02:57:34 10° N 03:02:39 66° WNW 03:07:50 10° SSW
Cosmos 1271 Rocket 4.4 03:01:02 12° W 03:02:52 17° WNW 03:05:10 10° NNW
CRYOSAT 2 4.5 02:59:52 10° S 03:04:41 59° W 03:09:32 10° N
Cosmos 2219 Rocket 2.8 02:59:43 10° NW 03:04:45 34° WSW 03:09:47 10° S
Cosmos 2237 Rocket 3.3 02:59:28 10° NNW 03:05:02 50° NE 03:10:33 10° SE
SL-16 R/B 3.9 03:03:02 10° WNW 03:05:04 12° W 03:06:38 11° WSW
RESURS DK-1 3.8 03:02:25 10° NNW 03:06:13 42° NE 03:10:00 10° ESE
Cosmos 44 4.2 03:00:59 10° NW 03:06:23 61° NE 03:11:40 10° ESE
SL-4 R/B 3.4 03:05:08 12° WSW 03:06:58 16° SW 03:09:18 10° S
SL-14 R/B 3.7 03:05:53 10° S 03:09:43 63° E 03:13:35 10° NNE
USA 290 3.4 03:10:18 12° WSW 03:12:44 29° NW 03:15:34 10° N
CZ-4C R/B 3.7 03:08:24 10° WNW 03:12:52 30° NNW 03:18:30 10° NE
ARGOS 3.3 03:08:13 10° NNE 03:13:40 78° ESE 03:19:01 10° SSW
USA 267 3.3 03:07:47 10° ENE 03:14:23 87° NNW 03:20:58 10° WSW
Cosmos 1408 Rocket 3.7 03:10:24 10° N 03:14:44 77° E 03:18:59 10° SSE
Cosmos 1745 Rocket 4.2 03:09:11 10° N 03:15:23 79° E 03:21:31 10° SSE
METEOR-M 4.2 03:10:56 10° NNE 03:16:16 73° WNW 03:21:33 10° SSW
Gbstr 26 Del rocket 4.3 03:20:18 10° WSW 03:22:28 15° SW 03:24:38 10° S
Cosmos 2322 3.8 03:19:41 10° NW 03:25:17 58° WSW 03:30:51 10° S
NOSS 3 (A) 4.4 03:29:00 10° WNW 03:31:13 45° SW 03:34:01 10° SSE
ISS -2.6 03:29:47 10° SW 03:32:54 35° SSE 03:36:02 10° E
UNK 4.2 03:30:34 10° SSE 03:35:08 70° ENE 03:39:42 10° N
Envisat 4.3 03:32:09 10° N 03:36:15 25° WNW 03:40:19 10° WSW
BREEZE-M DEB (TANK) 2.9 03:32:51 10° SW 03:38:08 38° SSE 03:40:42 10° E
